User: anonymous   Login
Location: Platte
(43.3870°N, 98.8440°W)
Time: 17:25:25
(UTC-05:00)
Language:

Landsat 7 - Orbit

View from above orbital plane
View from above orbital plane
View from above satellite
View from above satellite

Ground track
Ground track

The orbit data is extracted from the following two-line orbital elements,

1 25682U 99020A   16183.22449869 -.00000135  00000-0 -19835-4 0  9997
2 25682  98.2119 253.4362 0001255  62.7041 297.4290 14.57111755915480
Epoch (UTC): 01 July 2016 05:23:16
Eccentricity: 0.0001255
inclination: 98.2119°
perigee height: 701 km
apogee height: 703 km
right ascension of ascending node: 253.4362°
argument of perigee: 62.7041°
revolutions per day: 14.57111755
mean anomaly at epoch: 297.4290°
orbit number at epoch: 91548

The dashed part of the orbit path shows where the satellite is in the earth's shadow,  

DLR